Location: Austin
(30.3000°N, 97.7500°W)
Time: 23:20:10
(UTC-05:00)

Milstar 3 - Pass Details

Date: 06 May 2026
Orbit: 1097 x 5148 km, 28.2° (Epoch: 13 May)

Event Time Altitude Azimuth Distance (km) Brightness Sun altitude
Rises 21:06:51 0° 260° (W) 3,932 6.6 -11.6°
Reaches altitude 10° 21:09:25 10° 258° (WSW) 2,938 5.8 -12.1°
Maximum altitude 21:15:59 75° 174° (S) 1,242 2.9 -13.3°
Enters shadow 21:24:10 13° 90° (E) 3,646 4.9 -14.9°
